Location: Stull Observatory
(42.2506°N, 77.7903°W)
Time: 04:25:07
(UTC-04:00)

ISS - All Passes

Search period start: 25 April 2014 00:00
Search period end: 05 May 2014 00:00
Orbit: 413 x 418 km, 51.6° (Epoch: 25 April)

Date Brightness Start Highest point End Pass type
(mag) Time Alt. Az. Time Alt. Az. Time Alt. Az.
25 Apr - 12:34:49 10° S 12:36:54 16° SE 12:39:01 10° E daylight
25 Apr - 14:09:58 10° WSW 14:13:17 65° NNW 14:16:37 10° NE daylight
25 Apr - 15:47:57 10° WNW 15:50:29 20° NNW 15:53:01 10° NE daylight
25 Apr - 17:25:46 10° NW 17:28:06 17° N 17:30:26 10° NE daylight
25 Apr - 19:02:14 10° NW 19:05:27 42° NNE 19:08:40 10° E daylight
25 Apr - 20:39:11 10° WNW 20:42:03 26° SW 20:44:54 10° SSE visible
26 Apr - 13:21:03 10° SW 13:24:22 75° SE 13:27:42 10° ENE daylight
26 Apr - 14:58:35 10° WNW 15:01:21 24° NNW 15:04:09 10° NE daylight
26 Apr - 16:36:43 10° NW 16:38:55 16° N 16:41:08 10° NE daylight
26 Apr - 18:13:24 10° NW 18:16:24 30° NNE 18:19:24 10° E daylight
26 Apr - 19:49:59 10° WNW 19:53:13 46° SW 19:56:25 10° SE daylight
27 Apr - 12:32:14 10° SSW 12:35:23 41° SE 12:38:33 10° ENE daylight
27 Apr - 14:09:08 10° W 14:12:09 31° NNW 14:15:11 10° NE daylight
27 Apr - 15:47:24 10° NW 15:49:36 16° N 15:51:49 10° NE daylight
27 Apr - 17:24:26 10° NW 17:27:10 23° NNE 17:29:54 10° ENE daylight
27 Apr - 19:00:50 10° WNW 19:04:11 82° SW 19:07:31 10° SE daylight
28 Apr - 11:43:37 10° S 11:46:20 24° SE 11:49:05 10° E daylight
28 Apr - 13:19:39 10° WSW 13:22:52 45° NNW 13:26:05 10° NE daylight
28 Apr - 14:57:49 10° NW 15:00:10 18° N 15:02:31 10° NE daylight
28 Apr - 16:35:17 10° NW 16:37:46 19° NNE 16:40:14 10° ENE daylight
28 Apr - 18:11:39 10° NW 18:14:58 59° NNE 18:18:15 10° ESE daylight
28 Apr - 19:49:03 10° W 19:51:21 17° SW 19:53:37 10° S daylight
29 Apr - 10:55:27 10° SSE 10:57:13 14° SE 10:59:00 10° E daylight
29 Apr - 12:30:11 10° WSW 12:33:30 74° NNW 12:36:50 10° NE daylight
29 Apr - 14:08:02 10° WNW 14:10:37 20° NNW 14:13:11 10° NE daylight
29 Apr - 15:45:55 10° NW 15:48:11 17° N 15:50:28 10° NE daylight
29 Apr - 17:22:23 10° NW 17:25:33 38° NNE 17:28:41 10° E daylight
29 Apr - 18:59:12 10° WNW 19:02:09 30° SW 19:05:06 10° SSE daylight
30 Apr - 11:40:47 10° SW 11:44:04 64° SE 11:47:22 10° ENE daylight
30 Apr - 13:18:08 10° WNW 13:20:58 25° NNW 13:23:48 10° NE daylight
30 Apr - 14:56:17 10° NW 14:58:28 16° N 15:00:39 10° NE daylight
30 Apr - 16:33:01 10° NW 16:35:56 27° NNE 16:38:51 10° E daylight
30 Apr - 18:09:31 10° WNW 18:12:46 53° SW 18:16:00 10° SE daylight
01 May - 10:51:31 10° SSW 10:54:34 35° SE 10:57:38 10° ENE daylight
01 May - 12:28:10 10° W 12:31:14 34° NNW 12:34:19 10° NE daylight
01 May - 14:06:23 10° NW 14:08:37 16° N 14:10:50 10° NE daylight
01 May - 15:43:30 10° NW 15:46:09 21° NNE 15:48:48 10° ENE daylight
01 May - 17:19:51 10° NW 17:23:11 86° NE 17:26:30 10° SE daylight
01 May - 18:58:11 10° WSW 18:59:22 12° SW 19:00:34 10° SSW daylight
02 May - 10:02:29 10° S 10:05:00 20° SE 10:07:32 10° E daylight
02 May - 11:38:10 10° WSW 11:41:25 52° NNW 11:44:41 10° NE daylight
02 May - 13:16:14 10° WNW 13:18:38 18° N 13:21:02 10° NE daylight
02 May - 14:53:48 10° NW 14:56:12 18° N 14:58:35 10° NE daylight
02 May - 16:30:09 10° NW 16:33:25 51° NNE 16:36:39 10° ESE daylight
02 May - 18:07:18 10° W 18:09:50 20° SW 18:12:21 10° S daylight
03 May - 09:14:13 10° SSE 09:15:22 11° SE 09:16:31 10° ESE daylight
03 May - 10:48:13 10° SW 10:51:32 87° NW 10:54:52 10° NE daylight
03 May - 12:25:54 10° WNW 12:28:33 21° NNW 12:31:12 10° NE daylight
03 May - 14:03:52 10° NW 14:06:05 16° N 14:08:17 10° NE daylight
03 May - 15:40:22 10° NW 15:43:26 34° NNE 15:46:30 10° E daylight
03 May - 17:17:01 10° WNW 17:20:05 35° SW 17:23:08 10° SSE daylight
04 May - 09:58:22 10° SW 10:01:36 52° SE 10:04:50 10° ENE daylight
04 May - 11:35:28 10° W 11:38:23 28° NNW 11:41:18 10° NE daylight
04 May - 13:13:39 10° NW 13:15:49 16° N 13:17:58 10° NE daylight
04 May - 14:50:28 10° NW 14:53:17 25° NNE 14:56:05 10° ENE daylight
04 May - 16:26:51 10° WNW 16:30:09 66° SW 16:33:25 10° SE daylight
